Weather in Tutaul

Russia / Amur Oblast     55°01′23″N   127°27′33″E
temp.,
°C
wind,
m/s
gust,
m/s
humid.,
%
clouds,
%
prec.,
mm/h
press.,
hPa
HPBL,
m
6 december, mon
mon600:00−16ene0196100 0.6 101384
03:00−16ssw0196100 1.1 1012107
06:00−16w1196100 0.8 101394
09:00−16w1297100 1.3 101362
12:00−13wnw388114 0.0 1013313
15:00−13wnw612665 0.0 1015671
18:00−19wnw22865 0.0 101927
21:00−22nnw11925 0.0 10209
7 december, tue
tue700:00−22nw11935 0.0 10219
03:00−23nw22945 0.0 102216
06:00−24nw21955 0.0 102420
09:00−25nnw119580 0.0 102610
12:00−16sw11728 0.0 1024145
15:00−16se118544 0.0 102310
18:00−21e11955 0.0 10259
21:00−22ene11965 0.0 10269
8 december, wed
wed800:00−23ne119711 0.0 10279
03:00−23e11985 0.0 102710
06:00−20e1196100 0.0 102644
09:00−18ese1396100 0.3 1025174
12:00−16ese1291100 0.9 1024269
15:00−15ese1290100 1.1 1023247
18:00−19ne1110098 0.1 102410
21:00−18ne1199100 0.1 102423
9 december, thu
thu900:00−17ne1297100 0.1 102360
03:00−15ene1395100 0.1 1021108
06:00−15ne1296100 0.1 101983
09:00−14ne1296100 0.2 101869
12:00−12nnw1187100 0.1 1018252
15:00−12nw1193100 0.2 101817
18:00−19nnw2110072 0.0 102110
21:00−20nw2210055 0.0 102318
10 december, fri
fri1000:00−21nw229998 0.0 102434
03:00−21nw239672 0.0 102539
06:00−22nw23955 0.0 102746
09:00−24nw23955 0.0 102945
12:00−18nw24751 0.0 1028209
15:00−17wnw37804 0.0 1029278
18:00−24nw21975 0.0 103114
21:00−25nw22955 0.0 103230